Terminal Aerodrome Forecast
Issued by NWS North Platte, NE

Home | Current Version | Previous Version | Text Only | Print | Product List | Glossary On
Versions: 1 2 3 4 5 6 7 8 9 10 11 12
000
FTUS43 KLBF 281100
TAFVTN
TAF
KVTN 281122Z 2812/2912 VRB03KT P6SM SCT100 SCT250
     FM281700 09008KT P6SM SCT090 SCT250
     FM290100 09006KT P6SM SKC=

USA.gov is the U.S. government's official web portal to all federal, state and local government web resources and services.